Regional Weather Roundup
Issued by NWS Cleveland, OH

Home | Current Version | Previous Version | Graphics & Text | Print | Product List | Glossary On
Versions: 1 2 3 4 5 6 7 8 9 10 11 12 13 14 15 16 17 18 19 20 21 22 23 24 25 26 27 28 29 30 31 32 33 34 35 36 37 38 39 40 41 42 43 44 45 46 47 48 49 50
000
ASUS41 KCLE 021500
RWRCLE
OHIO REGIONAL WEATHER ROUNDUP
NATIONAL WEATHER SERVICE WILMINGTON, OH
1100 AM EDT THU JUL 02 2015

NOTE: "FAIR" INDICATES FEW OR NO CLOUDS BELOW 12,000 FEET WITH NO
SIGNIFICANT WEATHER AND/OR OBSTRUCTIONS TO VISIBILITY.

OHZ001>008-015>018-024>027-034-035-043-044-021600-
   NORTHWEST OHIO

CITY           SKY/WX    TMP DP  RH WIND       PRES   REMARKS
DEFIANCE       CLOUDY    68  59  73 NE8       29.99R
FINDLAY        CLOUDY    67  60  78 E12       29.97R
TOLEDO EXPRESS CLOUDY    66  56  70 NE13      29.99R
TOLEDO EXEC      N/A    N/A N/A N/A MISG      30.00R
LIMA           CLOUDY    66  62  87 NE8       29.96S
$$

OHZ009>014-019>023-028>033-038-089-021600-
   NORTHEAST OHIO

CITY           SKY/WX    TMP DP  RH WIND       PRES   REMARKS
CLE-HOPKINS    PTSUNNY   68  59  73 N8        30.00R
CLE-LAKEFRONT  MOSUNNY   68  60  75 N13       29.97R
CUY CO. ARPT   PTSUNNY   72  63  73 NE7       29.98S
LORAIN-ELYRIA  MOSUNNY   68  59  73 NE6       29.99R
ASHTABULA      MOSUNNY   68  59  73 NE6       29.98F
AKRON-CANTON   CLOUDY    66  59  78 NE3       29.98R
WOOSTER        NOT AVBL
MANSFIELD      CLOUDY    66  60  81 NE6       29.98S
YOUNGSTOWN     PTSUNNY   68  59  73 NW9       29.97S
$$

OHZ042-051>053-060>062-070>072-077>081-021600-
  SOUTHWEST OHIO

CITY           SKY/WX    TMP DP  RH WIND       PRES   REMARKS
CINC-COVINGTON LGT RAIN  70  67  90 E5        29.91S FOG
CINC-LUNKEN    CLOUDY    71  68  90 CALM      29.91S
HAMILTON       CLOUDY    71  67  87 NE3       29.92S
DAYTON         NOT AVBL
WRIGHT-PAT AFB PTSUNNY   69  62  77 NE6       29.93S
DAYTON GENERAL PTSUNNY   69  65  86 E7        29.92S
WILMINGTON     CLOUDY    67  64  90 NE6       29.93S FOG
$$

OHZ036-037-039>041-045>050-054>059-063>069-073>076-082>088-021600-
  CENTRAL AND SOUTHEAST OHIO

CITY           SKY/WX    TMP DP  RH WIND       PRES   REMARKS
COLUMBUS       CLOUDY    68  58  70 SE3       29.95R
OSU AIRPORT    CLOUDY    70  60  70 SE5       29.95R
BOLTON FIELD   CLOUDY    68  61  77 E3        29.96R
RICKENBACK AFB NOT AVBL
NEWARK         MOSUNNY   70  61  73 NE3       29.95R
MARION         PTSUNNY   69  62  78 NE6       29.97R
LANCASTER      CLOUDY    69  60  73 E3        29.95R
ZANESVILLE     CLOUDY    70  61  73 CALM      29.95S
NEW PHILLY     PTSUNNY   70  60  70 CALM      29.96R
$$


USA.gov is the U.S. government's official web portal to all federal, state and local government web resources and services.